TimeCDT,TemperatureF,Dew PointF,Humidity,Sea Level PressureIn,VisibilityMPH,Wind Direction,Wind SpeedMPH,Gust SpeedMPH,PrecipitationIn,Events,Conditions,WindDirDegrees,DateUTC
12:15 AM,50.0,35.6,58,30.17,10.0,SE,8.1,-,N/A,,Clear,140,2013-04-21 05:15:00
12:35 AM,51.8,35.6,54,30.17,10.0,SE,5.8,-,N/A,,Clear,130,2013-04-21 05:35:00
12:55 AM,51.8,37.4,58,30.17,10.0,SE,6.9,-,N/A,,Clear,130,2013-04-21 05:55:00
1:15 AM,51.8,35.6,54,30.17,10.0,ESE,6.9,-,N/A,,Clear,120,2013-04-21 06:15:00
1:35 AM,51.8,35.6,54,30.17,10.0,SE,6.9,-,N/A,,Clear,130,2013-04-21 06:35:00
1:55 AM,50.0,35.6,58,30.17,10.0,SE,6.9,-,N/A,,Clear,130,2013-04-21 06:55:00
2:15 AM,48.2,35.6,62,30.18,10.0,SE,6.9,-,N/A,,Clear,140,2013-04-21 07:15:00
2:35 AM,50.0,37.4,62,30.18,10.0,SE,9.2,-,N/A,,Clear,140,2013-04-21 07:35:00
2:55 AM,51.8,37.4,58,30.18,10.0,SE,8.1,-,N/A,,Clear,140,2013-04-21 07:55:00
3:15 AM,51.8,37.4,58,30.18,10.0,SSE,8.1,-,N/A,,Clear,160,2013-04-21 08:15:00
3:35 AM,53.6,37.4,54,30.19,10.0,South,8.1,-,N/A,,Clear,170,2013-04-21 08:35:00
3:55 AM,51.8,37.4,58,30.20,10.0,South,6.9,-,N/A,,Clear,170,2013-04-21 08:55:00
4:15 AM,53.6,37.4,54,30.20,10.0,SSE,10.4,-,N/A,,Clear,160,2013-04-21 09:15:00
4:35 AM,53.6,37.4,54,30.21,10.0,SSE,9.2,-,N/A,,Clear,160,2013-04-21 09:35:00
4:55 AM,51.8,35.6,54,30.21,10.0,SSE,6.9,-,N/A,,Clear,160,2013-04-21 09:55:00
5:15 AM,50.0,37.4,62,30.21,10.0,SE,6.9,-,N/A,,Clear,140,2013-04-21 10:15:00
5:35 AM,48.2,37.4,66,30.21,10.0,SE,5.8,-,N/A,,Clear,140,2013-04-21 10:35:00
5:55 AM,48.2,37.4,66,30.22,10.0,ESE,4.6,-,N/A,,Clear,120,2013-04-21 10:55:00
6:15 AM,48.2,37.4,66,30.22,10.0,SE,4.6,-,N/A,,Clear,140,2013-04-21 11:15:00
6:35 AM,48.2,37.4,66,30.23,10.0,SE,5.8,-,N/A,,Clear,130,2013-04-21 11:35:00
6:55 AM,48.2,37.4,66,30.24,10.0,SE,6.9,-,N/A,,Clear,130,2013-04-21 11:55:00
7:15 AM,48.2,37.4,66,30.24,10.0,ESE,8.1,-,N/A,,Clear,120,2013-04-21 12:15:00
7:35 AM,51.8,37.4,58,30.25,10.0,ESE,8.1,-,N/A,,Clear,120,2013-04-21 12:35:00
7:55 AM,51.8,37.4,58,30.25,10.0,SE,6.9,-,N/A,,Clear,130,2013-04-21 12:55:00
8:15 AM,53.6,37.4,54,30.25,10.0,SE,9.2,-,N/A,,Clear,140,2013-04-21 13:15:00
8:35 AM,55.4,37.4,51,30.25,10.0,SE,10.4,-,N/A,,Clear,130,2013-04-21 13:35:00
8:55 AM,55.4,39.2,54,30.26,10.0,SE,10.4,-,N/A,,Clear,140,2013-04-21 13:55:00
9:15 AM,55.4,39.2,54,30.26,10.0,SE,11.5,-,N/A,,Clear,140,2013-04-21 14:15:00
9:35 AM,57.2,39.2,51,30.26,10.0,SE,9.2,-,N/A,,Clear,140,2013-04-21 14:35:00
9:55 AM,57.2,39.2,51,30.26,10.0,SE,11.5,-,N/A,,Clear,140,2013-04-21 14:55:00
10:15 AM,57.2,39.2,51,30.26,10.0,SE,10.4,-,N/A,,Clear,140,2013-04-21 15:15:00
10:35 AM,57.2,39.2,51,30.26,10.0,SSE,10.4,-,N/A,,Partly Cloudy,150,2013-04-21 15:35:00
10:55 AM,60.8,41.0,48,30.26,10.0,SSE,11.5,17.3,N/A,,Partly Cloudy,160,2013-04-21 15:55:00
11:15 AM,60.8,39.2,45,30.26,10.0,South,12.7,18.4,N/A,,Partly Cloudy,180,2013-04-21 16:15:00
11:35 AM,60.8,39.2,45,30.26,10.0,South,13.8,-,N/A,,Mostly Cloudy,170,2013-04-21 16:35:00
11:55 AM,64.4,39.2,40,30.24,10.0,SSE,12.7,16.1,N/A,,Partly Cloudy,160,2013-04-21 16:55:00
12:15 PM,62.6,35.6,37,30.24,10.0,South,11.5,20.7,N/A,,Clear,180,2013-04-21 17:15:00
12:35 PM,64.4,37.4,37,30.23,10.0,SSE,18.4,-,N/A,,Clear,150,2013-04-21 17:35:00
12:55 PM,64.4,37.4,37,30.22,10.0,South,12.7,25.3,N/A,,Clear,180,2013-04-21 17:55:00
1:15 PM,64.4,35.6,34,30.21,10.0,SSE,19.6,25.3,N/A,,Mostly Cloudy,150,2013-04-21 18:15:00
1:35 PM,64.4,37.4,37,30.20,10.0,South,10.4,24.2,N/A,,Mostly Cloudy,170,2013-04-21 18:35:00
1:55 PM,64.4,35.6,34,30.19,10.0,South,11.5,18.4,N/A,,Mostly Cloudy,180,2013-04-21 18:55:00
2:15 PM,66.2,35.6,32,30.19,10.0,SSE,13.8,20.7,N/A,,Partly Cloudy,160,2013-04-21 19:15:00
2:35 PM,64.4,35.6,34,30.18,10.0,SSE,12.7,23.0,N/A,,Mostly Cloudy,160,2013-04-21 19:35:00
2:55 PM,64.4,35.6,34,30.17,10.0,SSE,13.8,19.6,N/A,,Mostly Cloudy,150,2013-04-21 19:55:00
3:15 PM,66.2,37.4,35,30.16,10.0,South,12.7,19.6,N/A,,Mostly Cloudy,180,2013-04-21 20:15:00
3:35 PM,66.2,35.6,32,30.15,10.0,SSE,12.7,18.4,N/A,,Scattered Clouds,160,2013-04-21 20:35:00
3:55 PM,66.2,35.6,32,30.15,10.0,SSE,6.9,-,N/A,,Partly Cloudy,150,2013-04-21 20:55:00
4:15 PM,66.2,35.6,32,30.14,10.0,SSE,10.4,-,N/A,,Scattered Clouds,160,2013-04-21 21:15:00
4:35 PM,66.2,37.4,35,30.13,10.0,SE,10.4,-,N/A,,Mostly Cloudy,140,2013-04-21 21:35:00
4:55 PM,69.8,37.4,31,30.13,10.0,SSE,12.7,-,N/A,,Scattered Clouds,150,2013-04-21 21:55:00
5:15 PM,68.0,37.4,33,30.12,10.0,SSE,10.4,16.1,N/A,,Partly Cloudy,150,2013-04-21 22:15:00
5:35 PM,68.0,37.4,33,30.12,10.0,SSW,8.1,-,N/A,,Clear,200,2013-04-21 22:35:00
5:55 PM,68.0,35.6,30,30.12,10.0,South,8.1,-,N/A,,Clear,170,2013-04-21 22:55:00
6:15 PM,68.0,37.4,33,30.12,10.0,South,10.4,-,N/A,,Clear,170,2013-04-21 23:15:00
6:35 PM,66.2,37.4,35,30.13,10.0,SSE,13.8,18.4,N/A,,Partly Cloudy,160,2013-04-21 23:35:00
6:55 PM,64.4,37.4,37,30.13,10.0,SSE,9.2,-,N/A,,Clear,160,2013-04-21 23:55:00
7:15 PM,64.4,37.4,37,30.13,10.0,SSE,9.2,-,N/A,,Clear,160,2013-04-22 00:15:00
7:35 PM,62.6,37.4,39,30.13,10.0,South,6.9,-,N/A,,Clear,170,2013-04-22 00:35:00
7:55 PM,59.0,37.4,45,30.14,10.0,SSE,6.9,-,N/A,,Clear,150,2013-04-22 00:55:00
8:15 PM,59.0,37.4,45,30.15,10.0,SSE,6.9,-,N/A,,Clear,160,2013-04-22 01:15:00
8:35 PM,57.2,37.4,48,30.15,10.0,SSE,5.8,-,N/A,,Clear,150,2013-04-22 01:35:00
8:55 PM,55.4,37.4,51,30.15,10.0,SSE,6.9,-,N/A,,Clear,150,2013-04-22 01:55:00
9:15 PM,55.4,37.4,51,30.16,10.0,SSE,5.8,-,N/A,,Clear,150,2013-04-22 02:15:00
9:35 PM,53.6,37.4,54,30.17,10.0,SSE,5.8,-,N/A,,Clear,150,2013-04-22 02:35:00
9:55 PM,53.6,35.6,51,30.18,10.0,SE,6.9,-,N/A,,Clear,140,2013-04-22 02:55:00
10:15 PM,53.6,35.6,51,30.18,10.0,SE,5.8,-,N/A,,Clear,140,2013-04-22 03:15:00
10:35 PM,51.8,35.6,54,30.18,10.0,SSE,5.8,-,N/A,,Clear,150,2013-04-22 03:35:00
10:55 PM,53.6,33.8,47,30.18,10.0,SSE,6.9,-,N/A,,Clear,150,2013-04-22 03:55:00
11:15 PM,53.6,33.8,47,30.18,10.0,SE,6.9,-,N/A,,Clear,140,2013-04-22 04:15:00
11:35 PM,51.8,33.8,50,30.19,10.0,SE,6.9,-,N/A,,Clear,140,2013-04-22 04:35:00
11:55 PM,50.0,35.6,58,30.19,10.0,SE,6.9,-,N/A,,Clear,140,2013-04-22 04:55:00